Regional Weather Roundup
Issued by NWS

Home | Current Version | Previous Version | Text Only | Print | Product List | Glossary Off
Versions: 1 2 3 4 5 6 7 8 9 10 11 12 13 14 15 16 17 18 19 20 21 22 23 24 25 26 27 28 29 30 31 32 33 34 35 36 37 38 39 40 41 42 43 44 45 46 47 48 49 50

000
ASUS43 KIND 241809
RWRIN

WEATHER ROUNDUP FOR INDIANA
NATIONAL WEATHER SERVICE INDIANAPOLIS IN
200 PM EDT WED AUG 24 2016

NOTE: "FAIR" INDICATES FEW OR NO CLOUDS BELOW 12,000 FEET WITH NO
SIGNIFICANT WEATHER AND/OR OBSTRUCTIONS TO VISIBILITY.

* - STATION DOES NOT REPORT WEATHER SUCH AS PRECIPITATION OR FOG.

+ - STATION NOT QUALITY CONTROLLED BY THE NATIONAL WEATHER SERVICE.
    USE DATA WITH CAUTION...ESPECIALLY DEWPOINT AND RELATIVE
    HUMIDITY OBSERVATIONS.

INZ001>003-010>013-019-020-241900-
NORTHWEST INDIANA

CITY           SKY/WX    TMP DP  RH WIND       PRES   REMARKS
GARY /AIRPORT/ CLOUDY    77  73  88 S8        29.96F
KNOX *+        CLOUDY    72  59  64 S9        30.00F
LA PORTE +     CLOUDY   N/A N/A N/A S12G17    29.99F
                                      6HR PCP:  0.08;

MICHIGAN CITY+   N/A    N/A N/A N/A MISG        N/A
MONTICELLO +   RAIN      73  69  87 SW3       30.01F
6HR MIN TEMP:  69; 6HR MAX TEMP:  74; 6HR PCP:  0.01;

RENSSELAER +   CLOUDY    73  73 100 S7        30.00F
VALPARAISO     PTSUNNY   75  71  87 S17       29.99F
6HR MIN TEMP:  70; 6HR MAX TEMP:  75; 6HR PCP:  0.22;


$$

LMZ046-743>745-241900-
SOUTHERN LAKE MICHIGAN

STATION/POSITION TIME  TEMP    WIND        PRES    WAVE
                       AIR SEA DIR/SP/G            HT
                 (UTC) (F)     (DEG/KT/KT) (MB)    (FT)
BURNS HARBOR     1706   73     180/ 10/ 18 1015.9F
MICHIGAN CITY    1700   72     150/ 10/ 13   N/A
5NW MICH CITY    1800   75 74  200/ 17/ 21   N/A     2

$$

INZ004-005-014>016-021>024-241900-
NORTH CENTRAL INDIANA

CITY           SKY/WX    TMP DP  RH WIND       PRES   REMARKS
ELKHART        LGT RAIN  75  72  88 S14       30.01F
GOSHEN         RAIN      76  70  82 SW18G24   30.03F
6HR MIN TEMP:  72; 6HR MAX TEMP:  78; 6HR PCP:  0.01;

LOGANSPORT +   LGT RAIN  73  72  94 S8        30.03F
PERU/GRISSOM   PTSUNNY   76  74  95 S9        30.01F
6HR MIN TEMP:  71; 6HR MAX TEMP:  77; 6HR PCP:  0.05;

ROCHESTER +    HVY RAIN  75  75 100 S5        30.04F
SOUTH BEND     LGT RAIN  74  73  97 S13       29.99F
6HR MIN TEMP:  69; 6HR MAX TEMP:  75; 6HR PCP:  0.03;

WARSAW +       HVY RAIN  73  72  94 S5        30.05S

$$

INZ006>009-017-018-025>027-241900-
NORTHEAST INDIANA

CITY           SKY/WX    TMP DP  RH WIND       PRES   REMARKS
ANGOLA *+      MOSUNNY   79  72  78 SW13      30.04F
AUBURN +       CLOUDY    81  70  69 SW8       30.05F
FORT WAYNE     LGT RAIN  79  71  76 S15       30.06F
6HR MIN TEMP:  68; 6HR MAX TEMP:  81; 6HR PCP: TRACE;

HUNTINGTON +   DRIZZLE  N/A N/A N/A S7        30.05F

$$

INZ028-029-035-036-043>045-051>053-241900-
WEST CENTRAL INDIANA

CITY           SKY/WX    TMP DP  RH WIND       PRES   REMARKS
CRAWFORDSVL +  CLOUDY    81  76  85 S13G18    30.02F
6HR MIN TEMP:  68; 6HR MAX TEMP:  82; 6HR PCP:  0.04;

GREENCASTLE +  PTSUNNY   82  77  83 S6        30.05F
LAFAYETTE      HVY RAIN  77  74  90 W9        30.01F VSB 3/4
6HR MIN TEMP:  70; 6HR MAX TEMP:  80; 6HR PCP:  0.44;

TERRE HAUTE    CLOUDY    86  74  67 SW15G25   30.03F
6HR MIN TEMP:  73; 6HR MAX TEMP:  87;


$$

INZ030>032-037>040-046>048-054>057-064-065-241900-
CENTRAL INDIANA

CITY           SKY/WX    TMP DP  RH WIND       PRES   REMARKS
ANDERSON       MOSUNNY   77  72  83 S12       30.08
INDIANAPOLIS   PTSUNNY   85  74  69 S13       30.04F
6HR MIN TEMP:  70; 6HR MAX TEMP:  85;

-EAGLE CREEK   MOSUNNY   84  73  69 S10G18    30.05F
6HR MIN TEMP:  71; 6HR MAX TEMP:  84;

KOKOMO *+      CLOUDY    79  70  73 S14       30.03F
6HR MIN TEMP:  70; 6HR MAX TEMP:  79; 6HR PCP:  0.04;

MARION +       CLOUDY    77  71  82 S12       30.06F
MT COMFORT *+  CLOUDY    79  73  83 S12       30.08F
SHELBYVILLE    CLOUDY    84  74  71 S12       30.08F
6HR MIN TEMP:  71; 6HR MAX TEMP:  84;

ZIONSVILLE +   MOSUNNY   81  74  79 S15G25    30.06F
6HR MIN TEMP:  69; 6HR MAX TEMP:  81;


$$

INZ033-034-041-042-049-050-058-059-241900-
EAST CENTRAL INDIANA

CITY           SKY/WX    TMP DP  RH WIND       PRES   REMARKS
MUNCIE         CLOUDY    79  72  79 S10       30.08F
6HR MIN TEMP:  71; 6HR MAX TEMP:  80; 6HR PCP: TRACE;


$$

INZ060-061-067>069-081>083-085>088-241900-
SOUTHWEST INDIANA

CITY           SKY/WX    TMP DP  RH WIND       PRES   REMARKS
EVANSVILLE     MOSUNNY   87  75  67 SW12G23   30.10F HX  96
6HR MIN TEMP:  72; 6HR MAX TEMP:  88;

HUNTINGBURG *+ PTSUNNY   88  75  66 S14G22    30.11F HX  97
6HR MIN TEMP:  70; 6HR MAX TEMP:  88;

WASHINGTON +   MOSUNNY   88  76  67 MISG      30.06F HX  98
6HR MIN TEMP:  70; 6HR MAX TEMP:  88;


$$

INZ062-063-066-070>080-084-089>092-241900-
SOUTH CENTRAL AND SOUTHEAST INDIANA

CITY           SKY/WX    TMP DP  RH WIND       PRES   REMARKS
BLOOMINGTON    PTSUNNY   86  73  65 S16G25    30.07F
6HR MIN TEMP:  69; 6HR MAX TEMP:  86;

MADISON *+     MOSUNNY   86  72  62 SW9G20    30.15F

$$





USA.gov is the U.S. government's official web portal to all federal, state and local government web resources and services.